Flag for U.S.A. Weather past 2 weeks in Coeur d'Alene, Idaho, U.S.A.

Now
75 °F

Sunny.


Feels Like: 77 °F
Forecast: 60 / 90 °F
Wind: 12 mph from Northeast

Location: Coeur d'Alene Weather Reporting System

Current Time: Jul 5, 2015 at 8:50:04 PM

Latest Report: Jul 5, 2015 at 8:15 PM


Visibility: 10 mi

Pressure: 29.97 "Hg (27.80 "Hg at 655m altitude)

Humidity: 34%

Dew point: 45 °F

Location of Coeur d'AleneLocation

Historic Weather in Coeur d'Alene — Graph

°F

Coeur d'Alene temperature yesterday

Maximum temperature yesterday: 97 °F (at 3:15 PM)
Minimum temperature yesterday: 63 °F (at 3:15 AM)
Average temperature yesterday: 81 °F

Past Weeks' High & Low Weather Summary

 TemperatureHumidityPressure
High102 °F (Jun 28, 2:15 PM)82% (Jun 26, 3:55 AM)30.16 "Hg (Jun 26, 3:55 AM)
Low50 °F (Jun 21, 5:55 AM)10% (Jun 24, 12:15 PM)29.68 "Hg (Jul 4, 5:55 PM)
Average76 °F42%29.96 "Hg
* Reported Jun 20 7:15 PM — Jul 5 7:55 PM, Coeur d'Alene, Weather by CustomWeather, © 2015

Note: Actual official high and low records may vary slightly from our data, if they occured in-between our weather recording intervals... More about our weather records

Advertising

Coeur d'Alene weather history for previous 24 hours

 ConditionsComfort  
Time TempWeatherWind HumidityBarometerVisibility
7:55 PM
Sun, Jul 5
79 °FSunny.14 mph30%29.97 "Hg10 mi
7:35 PM81 °FSunny.14 mph24%29.96 "Hg10 mi
7:15 PM81 °FSunny.15 mph28%29.96 "Hg10 mi
6:55 PM81 °FSunny.17 mph28%29.95 "Hg10 mi
6:35 PM81 °FSunny.14 mph28%29.95 "Hg10 mi
6:15 PM81 °FSunny.18 mph28%29.95 "Hg10 mi
5:55 PM82 °FSunny.21 mph26%29.94 "Hg10 mi
5:35 PM82 °FSunny.17 mph28%29.94 "Hg10 mi
5:15 PM84 °FSunny.20 mph27%29.94 "Hg10 mi
4:55 PM84 °FSunny.21 mph27%29.93 "Hg10 mi
4:35 PM82 °FSunny.17 mph28%29.92 "Hg10 mi
4:15 PM82 °FSunny.20 mph30%29.92 "Hg10 mi
3:55 PM82 °FSunny.18 mph30%29.92 "Hg10 mi
3:35 PM84 °FSunny.17 mph29%29.92 "Hg10 mi
3:15 PM84 °FSunny.15 mph29%29.92 "Hg10 mi
2:55 PM84 °FSunny.17 mph29%29.92 "Hg10 mi
2:35 PM84 °FSunny.21 mph29%29.92 "Hg10 mi
2:15 PM84 °FSunny.18 mph29%29.91 "Hg10 mi
1:55 PM84 °FSunny.21 mph29%29.91 "Hg10 mi
1:35 PM82 °FSunny.21 mph30%29.92 "Hg10 mi
1:15 PM82 °FSunny.22 mph30%29.92 "Hg10 mi
12:55 PM82 °FSunny.21 mph30%29.92 "Hg10 mi
12:35 PM82 °FSunny.23 mph30%29.92 "Hg10 mi
12:15 PM81 °FSunny.25 mph30%29.91 "Hg10 mi
11:55 AM81 °FSunny.23 mph32%29.92 "Hg10 mi
11:35 AM79 °FSunny.25 mph34%29.92 "Hg10 mi
11:15 AM79 °FSunny.22 mph34%29.92 "Hg10 mi
10:55 AM79 °FSunny.21 mph34%29.91 "Hg10 mi
10:35 AM77 °FSunny.24 mph36%29.91 "Hg10 mi
10:15 AM77 °FSunny.25 mph36%29.91 "Hg10 mi
9:55 AM75 °FSunny.24 mph39%29.91 "Hg10 mi
9:35 AM75 °FSunny.22 mph39%29.90 "Hg10 mi
9:15 AM75 °FSunny.23 mph39%29.90 "Hg10 mi
8:55 AM73 °FSunny.22 mph38%29.90 "Hg10 mi
8:35 AM72 °FSunny.22 mph41%29.89 "Hg10 mi
8:15 AM72 °FSunny.22 mph41%29.89 "Hg10 mi
7:55 AM73 °FSunny.22 mph41%29.88 "Hg10 mi
7:35 AM72 °FSunny.20 mph41%29.88 "Hg10 mi
7:15 AM72 °FPassing clouds.20 mph41%29.88 "Hg10 mi
6:55 AM72 °FPassing clouds.20 mph38%29.87 "Hg10 mi
6:35 AM70 °FSunny.20 mph43%29.87 "Hg10 mi
6:15 AM70 °FSunny.15 mph43%29.86 "Hg10 mi
5:55 AM70 °FSunny.15 mph43%29.85 "Hg10 mi
5:35 AM70 °FClear.16 mph43%29.84 "Hg10 mi
5:15 AM70 °FPassing clouds.17 mph43%29.83 "Hg10 mi
4:55 AM72 °FPassing clouds.17 mph41%29.82 "Hg10 mi
4:35 AM72 °FClear.17 mph41%29.81 "Hg10 mi
4:15 AM73 °FClear.21 mph36%29.80 "Hg10 mi
3:55 AM73 °FClear.20 mph31%29.79 "Hg10 mi
3:35 AM72 °FClear.14 mph31%29.79 "Hg10 mi
3:15 AM72 °FClear.15 mph31%29.78 "Hg10 mi
2:55 AM70 °FClear.8 mph33%29.78 "Hg10 mi
2:35 AM70 °FClear.7 mph38%29.77 "Hg10 mi
2:15 AM68 °FClear.5 mph40%29.77 "Hg10 mi
1:55 AM72 °FClear.6 mph33%29.76 "Hg10 mi
1:35 AM72 °FClear.7 mph36%29.75 "Hg10 mi
1:15 AM73 °FClear.6 mph33%29.75 "Hg10 mi
12:55 AM72 °FClear.7 mph38%29.74 "Hg10 mi
12:35 AM72 °FClear.No wind38%29.74 "Hg10 mi
12:15 AM73 °FClear.6 mph36%29.74 "Hg10 mi
11:55 PM
Sat, Jul 4
75 °FClear.6 mph34%29.73 "Hg10 mi
11:35 PM75 °FClear.7 mph36%29.73 "Hg10 mi
11:15 PM75 °FClear.8 mph36%29.73 "Hg10 mi
10:55 PM79 °FClear.8 mph32%29.73 "Hg10 mi
10:35 PM79 °FClear.6 mph34%29.72 "Hg10 mi
10:15 PM79 °FPassing clouds.9 mph39%29.72 "Hg10 mi
9:55 PM81 °FPassing clouds.6 mph39%29.72 "Hg10 mi
9:35 PM79 °FPartly sunny.8 mph34%29.71 "Hg10 mi
8:35 PM82 °FSunny.3 mph35%29.68 "Hg10 mi
8:15 PM86 °FSunny.3 mph31%29.68 "Hg10 mi
Weather by CustomWeather, © 2015

See weather overviewHow to use our weather pages